Preview of NWS' New Version of Forecast
This preview is not operational and should not be used for support decisions.

Regional Weather Roundup (RWR)

Issued by National Weather Service (NWS)

                            
000
ASUS43 KMKX 230111
RWRWI 

WISCONSIN REGIONAL WEATHER ROUNDUP
NATIONAL WEATHER SERVICE MILWAUKEE/SULLIVAN WI
800 PM CDT MON JUL 22 2019

NOTE: "FAIR" INDICATES FEW OR NO CLOUDS BELOW 12,000 FEET WITH NO
SIGNIFICANT WEATHER AND/OR OBSTRUCTIONS TO VISIBILITY.

WIZ001-002-006>008-014>016-023>028-230200-
NORTHWEST WISCONSIN
  
CITY           SKY/WX    TMP DP  RH WIND       PRES   REMARKS
SUPERIOR ARPT  FAIR      73  55  53 NW8       30.12S                  
ASHLAND        RAIN      70  58  65 NW5       30.11R                  
HAYWARD        FAIR      73  57  57 CALM      30.15R                  
SIREN          FAIR      72  56  57 W5        30.16S                  
CUMBERLAND     NOT AVBL                                               
RICE LAKE      FAIR      70  58  65 W3        30.16S                  
CHETEK         FAIR      72  56  58 W3        30.15S                  
LADYSMITH      FAIR      71  56  58 W7        30.15F                  
EAU CLAIRE     FAIR      71  55  56 NW5       30.14S                  
MENOMONIE      FAIR      70  52  53 W6        30.16R                  
NEW RICHMOND   FAIR      71  55  55 NW6       30.17F                  
OSCEOLA        FAIR      73  55  53 NW6       30.20S                  
$$
 
WIZ003>005-009-010-017-018-230200-
NORTH CENTRAL WISCONSIN
  
CITY           SKY/WX    TMP DP  RH WIND       PRES   REMARKS
MANITOWISH WTR FAIR      69  54  59 CALM      30.13S                  
ARBOR VITAE    FAIR      69  56  63 CALM      30.13S                  
WOODRUFF       FAIR      69  56  63 CALM      30.13S                  
RHINELANDER    FAIR      69  52  54 NW3       30.13R                  
EAGLE RIVER    FAIR      68  50  53 NW5       30.11S                  
LAND O LAKES   FAIR      68  51  54 NW5       30.13S                  
PHILLIPS       FAIR      69  55  60 CALM      30.13S                  
TOMAHAWK       FAIR      67  54  64 CALM      30.13S                  
MEDFORD        FAIR      68  54  59 NW3       30.13S                  
MERRILL        FAIR      71  54  56 CALM      30.12S                  
$$
 
WIZ029-030-035-036-043>047-230200-
CENTRAL WISCONSIN
  
CITY           SKY/WX    TMP DP  RH WIND       PRES   REMARKS
WAUSAU         FAIR      73  52  47 NW7       30.10R                  
MOSINEE        PTCLDY    70  54  56 NW6       30.13R                  
MARSHFIELD     FAIR      69  55  60 NW7       30.12S                  
STEVENS POINT  FAIR      71  51  49 NW3       30.12S                  
WAUPACA        NOT AVBL                                               
WAUTOMA        FAIR      72  57  59 W6        30.10S                  
WISC RAPIDS    FAIR      72  56  57 W5        30.12S                  
CAMP DOUGLAS   PTCLDY    73  57  56 NW6       30.12S                  
$$
 
WIZ011>013-019>022-031-037>040-048>050-230200-
NORTHEAST WISCONSIN
  
CITY           SKY/WX    TMP DP  RH WIND       PRES   REMARKS
ANTIGO         FAIR      67  53  59 NW6       30.12S                  
SHAWANO        FAIR      73  53  48 NW7       30.08R                  
OCONTO         FAIR      72  52  50 N3        30.06R                  
STURGEON BAY   FAIR      71  56  58 N9        30.06R                  
GREEN BAY      MOCLDY    74  59  59 NW5       30.06R                  
MANITOWOC      FAIR      73  52  47 W5        30.06S                  
APPLETON       PTCLDY    72  48  43 SW5       30.07R                  
CLINTONVILLE   FAIR      73  51  45 NW6       30.08S                  
OSHKOSH        FAIR      72  55  55 W3        30.08R                  
$$
 
WIZ032>034-041-042-053>061-230200-
SOUTHWEST WISCONSIN
  
CITY           SKY/WX    TMP DP  RH WIND       PRES   REMARKS
LA CROSSE      FAIR      75  55  49 N7        30.14R                  
SPARTA         FAIR      72  55  56 W3        30.15S                  
VIROQUA        FAIR      69  57  65 NW3       30.16S                  
BOSCOBEL       FAIR      73  56  54 W3        30.14R                  
PRAIRIE DU CHI FAIR      72  50  44 N3        30.14S                  
PLATTEVILLE    FAIR      70  56  61 NW6       30.15S                  
$$

WIZ056-057-062-063-064-067-068-230200-
SOUTH CENTRAL WISCONSIN
  
CITY           SKY/WX    TMP DP  RH WIND       PRES   REMARKS
REEDSBURG      FAIR      71  54  54 CALM      30.12S                  
BARABOO/DELLS  FAIR      70  53  53 NW3       30.12S                  
LONE ROCK      FAIR      72  55  55 NW3       30.12S                  
MINERAL POINT  FAIR      72  55  56 CALM      30.15S                  
MADISON        FAIR      71  56  58 CALM      30.11R                  
MIDDLETON      FAIR      70  57  61 CALM      30.13S                  
WATERTOWN      NOT AVBL                                               
MONROE         FAIR      69  51  52 N5        30.13S                  
JANESVILLE     CLEAR     73  50  43 N8        30.11R                  
$$
 
WIZ051-052-058>065-066-070>072-230200-
SOUTHEAST WISCONSIN
  
CITY           SKY/WX    TMP DP  RH WIND       PRES   REMARKS
MILWAUKEE      FAIR      69  47  45 NE3       30.09R                  
WAUKESHA       CLEAR     70  48  46 N6        30.11R                  
MILWAUKEE/TIMM CLEAR     72  46  40 CALM      30.10S                  
RACINE         FAIR      67  50  54 N3        30.11S                  
KENOSHA        FAIR      70  53  54 N3        30.10R                  
FOND DU LAC    FAIR      72  56  57 W5        30.09S                  
SHEBOYGAN      FAIR      70  57  63 W3        30.07S                  
WEST BEND      FAIR      70  48  46 CALM      30.09S                  
JUNEAU         FAIR      69  55  61 CALM      30.11S                  
$$

LSZ147-162-230200-
LAKE SUPERIOR
  
STATION/POSITION TIME  TEMP    WIND        PRES    WAVE
                       AIR SEA DIR/SP/G            HT/PER
                 (UTC) (F)     (DEG/KT/KT) (MB)    (FT/S)
W MID LAKE BUOY  0050   59 49  250/ 10/ 10 1017.9R   1/ 3
$$
 
LMZ867-665-643>646-230200-
LAKE MICHIGAN
  
STATION/POSITION TIME  TEMP    WIND        PRES    WAVE
                       AIR SEA DIR/SP/G            HT/PER
                 (UTC) (F)     (DEG/KT/KT) (MB)    (FT/S)
CHAMBERS ISLAND  0040   72      30/ 14/ 18 1017.6R
S GREEN BAY BUOY 0030   79 73  350/ 14/ 19 1017.7R
N MID LAKE BUOY  0050   68 65  360/ 10/ 14 1017.8R   1
NORTHPORT PIER   0040   72     360/  4/  6 1017.3R
KEWAUNEE LAKESHO 0024   69      CALM  /  3 1016.8
SHEBOYGAN LAKESH 0100   69     190/  9/  9 1017.9S
ATWATER BUOY     0030   67 67  280/  4/  6 1019.2R   2/ 5
MILWAUKEE LAKESH 0050   69      50/  3/  4   N/A
S MID LAKE BUOY  0050   67 68  350/ 12/ 16 1018.6R   4/ 6
KENOSHA   LAKESH 0100   67     360/  4/  5 1018.6
$$

TC  - TEMPERATURE IN CELSIUS
VSB - VISIBILITY IN STATUTE MILES
WCI - WIND CHILL INDEX
HX  - HEAT INDEX